RYR98SH LDZA-LMML

Flight info

Callsign RYR98SH
Flight time 1h 45m
Altitude 38000
Route NIVES DCT KOREX DCT DIGOT DCT VAPUP/N0435F370 DCT EKMOT DCT IPKAM DCT PELEN DCT OBAXU DCT NELDA DCT DIRKA N982 GZO
Aircraft A320/M-SDE3FGHIRWY/LB1

Departure

Time 2026-04-30 09:56
Airport Zagreb Franjo Tuđman International Airport (LDZA)

Arrival

Time 2026-04-30 11:41
Airport Malta International Airport (LMML)
Time Latitude Longitude Altitude Speed Heading
2026-04-30 09:13 45.74238 16.07923 361 ft 0 kts 136°
2026-04-30 09:17 45.74238 16.07922 361 ft 0 kts 136°
2026-04-30 09:24 45.74238 16.07923 359 ft 0 kts 138°
2026-04-30 09:25 45.74238 16.07922 359 ft 0 kts 138°
2026-04-30 09:37 45.74239 16.07922 359 ft 0 kts 140°
2026-04-30 09:45 45.74239 16.07921 359 ft 1 kts 139°
2026-04-30 09:46 45.74258 16.07900 359 ft 4 kts 145°
2026-04-30 09:46 45.74281 16.07880 359 ft 4 kts 155°
2026-04-30 09:46 45.74306 16.07868 359 ft 4 kts 176°
2026-04-30 09:46 45.74328 16.07873 359 ft 2 kts 225°
2026-04-30 09:47 45.74329 16.07875 359 ft 0 kts 226°
2026-04-30 09:48 45.74329 16.07874 359 ft 1 kts 226°
2026-04-30 09:48 45.74301 16.07832 359 ft 10 kts 226°
2026-04-30 09:49 45.74232 16.07732 359 ft 18 kts 226°
2026-04-30 09:49 45.74128 16.07574 365 ft 22 kts 226°
2026-04-30 09:49 45.74058 16.07418 363 ft 13 kts 285°
2026-04-30 09:49 45.74128 16.07324 361 ft 18 kts 313°
2026-04-30 09:50 45.74211 16.07184 359 ft 17 kts 272°
2026-04-30 09:50 45.74133 16.07029 362 ft 23 kts 231°
2026-04-30 09:50 45.74010 16.06850 359 ft 27 kts 224°
2026-04-30 09:50 45.73866 16.06642 359 ft 31 kts 227°
2026-04-30 09:51 45.73717 16.06400 359 ft 33 kts 229°
2026-04-30 09:51 45.73554 16.06150 359 ft 35 kts 226°
2026-04-30 09:51 45.73379 16.05889 359 ft 37 kts 226°
2026-04-30 09:51 45.73205 16.05628 362 ft 34 kts 226°
2026-04-30 09:52 45.73096 16.05406 363 ft 25 kts 264°
2026-04-30 09:52 45.73119 16.05307 361 ft 0 kts 310°
2026-04-30 09:52 45.73119 16.05308 361 ft 0 kts 310°
2026-04-30 09:53 45.73121 16.05306 360 ft 1 kts 310°
2026-04-30 09:54 45.73126 16.05297 360 ft 2 kts 313°
2026-04-30 09:54 45.73137 16.05283 364 ft 2 kts 318°
2026-04-30 09:54 45.73152 16.05264 361 ft 3 kts 320°
2026-04-30 09:54 45.73170 16.05243 362 ft 4 kts 324°
2026-04-30 09:55 45.73199 16.05226 364 ft 5 kts
2026-04-30 09:55 45.73233 16.05264 364 ft 8 kts 46°
2026-04-30 09:55 45.73333 16.05424 362 ft 51 kts 47°
2026-04-30 09:55 45.73564 16.05777 361 ft 94 kts 47°
2026-04-30 09:56 45.74359 16.06997 421 ft 149 kts 50°
2026-04-30 09:56 45.74817 16.07675 954 ft 136 kts 48°
2026-04-30 09:56 45.75356 16.08799 1625 ft 139 kts 60°
2026-04-30 09:56 45.75755 16.10159 2012 ft 159 kts 70°
2026-04-30 09:57 45.75986 16.11834 2344 ft 185 kts 81°
2026-04-30 09:57 45.75931 16.13795 2618 ft 213 kts 95°
2026-04-30 09:57 45.75595 16.15937 3450 ft 223 kts 99°
2026-04-30 09:57 45.75256 16.18120 4354 ft 226 kts 99°
2026-04-30 09:58 45.74919 16.20321 5254 ft 228 kts 99°
2026-04-30 09:58 45.74581 16.22556 6144 ft 231 kts 99°
2026-04-30 09:58 45.74239 16.24821 7011 ft 235 kts 99°
2026-04-30 09:58 45.73893 16.27125 7322 ft 237 kts 99°
2026-04-30 09:59 45.72623 16.31485 7404 ft 244 kts 125°
2026-04-30 09:59 45.70165 16.34886 7402 ft 246 kts 133°
2026-04-30 10:00 45.67206 16.37255 7403 ft 258 kts 175°
2026-04-30 10:00 45.65433 16.36617 7482 ft 281 kts 212°
2026-04-30 10:01 45.62626 16.32446 8935 ft 299 kts 227°
2026-04-30 10:01 45.61182 16.30251 9725 ft 306 kts 226°
2026-04-30 10:01 45.59701 16.28034 10482 ft 312 kts 226°
2026-04-30 10:02 45.56673 16.23493 11984 ft 318 kts 227°
2026-04-30 10:02 45.55146 16.21187 12767 ft 320 kts 229°
2026-04-30 10:02 45.53617 16.18869 13544 ft 322 kts 229°
2026-04-30 10:02 45.52075 16.16530 14306 ft 324 kts 229°
2026-04-30 10:03 45.50526 16.14182 14997 ft 326 kts 229°
2026-04-30 10:03 45.48970 16.11824 15661 ft 328 kts 229°
2026-04-30 10:03 45.47401 16.09444 16328 ft 331 kts 230°
2026-04-30 10:03 45.45809 16.07029 16759 ft 343 kts 229°
2026-04-30 10:04 45.44128 16.04475 16900 ft 362 kts 229°
2026-04-30 10:04 45.42382 16.01830 17332 ft 371 kts 229°
2026-04-30 10:04 45.40627 15.99183 17916 ft 375 kts 229°
2026-04-30 10:04 45.38833 15.96478 18542 ft 378 kts 229°
2026-04-30 10:05 45.37019 15.93747 19107 ft 381 kts 229°
2026-04-30 10:05 45.35036 15.91200 19637 ft 388 kts 217°
2026-04-30 10:05 45.32665 15.89331 20180 ft 394 kts 202°
2026-04-30 10:05 45.30015 15.88288 20728 ft 398 kts 188°
2026-04-30 10:06 45.27233 15.88163 21264 ft 402 kts 173°
2026-04-30 10:06 45.24496 15.88956 21779 ft 403 kts 163°
2026-04-30 10:06 45.21743 15.89771 22300 ft 407 kts 175°
2026-04-30 10:06 45.18903 15.89678 22823 ft 410 kts 188°
2026-04-30 10:07 45.16099 15.88846 23348 ft 413 kts 195°
2026-04-30 10:07 45.13295 15.87897 23882 ft 416 kts 194°
2026-04-30 10:07 45.10455 15.87000 24329 ft 420 kts 193°
2026-04-30 10:07 45.07587 15.86137 24778 ft 422 kts 193°
2026-04-30 10:08 45.04701 15.85286 25203 ft 425 kts 193°
2026-04-30 10:08 45.01796 15.84426 25628 ft 428 kts 193°
2026-04-30 10:08 44.98881 15.83553 26062 ft 430 kts 194°
2026-04-30 10:08 44.95949 15.82662 26480 ft 432 kts 194°
2026-04-30 10:09 44.92996 15.81756 26902 ft 434 kts 194°
2026-04-30 10:09 44.90042 15.80847 27338 ft 436 kts 194°
2026-04-30 10:09 44.87070 15.79937 27757 ft 438 kts 195°
2026-04-30 10:09 44.84081 15.79026 28116 ft 441 kts 196°
2026-04-30 10:10 44.81072 15.78115 28478 ft 443 kts 196°
2026-04-30 10:10 44.78055 15.77203 28884 ft 445 kts 196°
2026-04-30 10:10 44.75014 15.76299 29268 ft 447 kts 195°
2026-04-30 10:10 44.71957 15.75448 29667 ft 449 kts 195°
2026-04-30 10:11 44.68884 15.74636 30057 ft 451 kts 194°
2026-04-30 10:11 44.65784 15.73841 30421 ft 453 kts 195°
2026-04-30 10:11 44.62684 15.73045 30771 ft 454 kts 195°
2026-04-30 10:11 44.59564 15.72237 31090 ft 456 kts 195°
2026-04-30 10:12 44.56442 15.71418 31406 ft 458 kts 195°
2026-04-30 10:12 44.53305 15.70587 31716 ft 460 kts 195°
2026-04-30 10:12 44.50157 15.69746 32013 ft 461 kts 196°
2026-04-30 10:12 44.47011 15.68905 32444 ft 459 kts 197°
2026-04-30 10:13 44.43884 15.68074 32886 ft 457 kts 197°
2026-04-30 10:13 44.40759 15.67245 33332 ft 456 kts 197°
2026-04-30 10:13 44.37653 15.66397 33746 ft 454 kts 198°
2026-04-30 10:13 44.34573 15.65419 34175 ft 452 kts 200°
2026-04-30 10:14 44.31532 15.64342 34540 ft 450 kts 201°
2026-04-30 10:14 44.28509 15.63213 34826 ft 450 kts 201°
2026-04-30 10:14 44.22469 15.60949 35450 ft 450 kts 201°
2026-04-30 10:15 44.19476 15.59860 35741 ft 450 kts 200°
2026-04-30 10:15 44.16438 15.58780 36017 ft 451 kts 200°
2026-04-30 10:15 44.13390 15.57715 36286 ft 452 kts 200°
2026-04-30 10:15 44.10340 15.56656 36548 ft 452 kts 200°
2026-04-30 10:16 44.07255 15.55585 36847 ft 451 kts 200°
2026-04-30 10:16 44.04249 15.54540 37115 ft 452 kts 200°
2026-04-30 10:16 44.01204 15.53477 37349 ft 452 kts 200°
2026-04-30 10:17 43.95096 15.51344 37832 ft 453 kts 199°
2026-04-30 10:17 43.88986 15.49204 38206 ft 453 kts 199°
2026-04-30 10:17 43.85934 15.48139 38233 ft 452 kts 199°
2026-04-30 10:18 43.79830 15.46021 38219 ft 452 kts 199°
2026-04-30 10:19 43.70680 15.42850 38206 ft 452 kts 199°
2026-04-30 10:19 43.64579 15.40736 38206 ft 452 kts 199°
2026-04-30 10:20 43.58485 15.38630 38206 ft 452 kts 199°
2026-04-30 10:20 43.49327 15.35484 38215 ft 452 kts 200°
2026-04-30 10:21 43.43271 15.33405 38224 ft 451 kts 200°
2026-04-30 10:21 43.37177 15.31317 38208 ft 451 kts 200°
2026-04-30 10:22 43.31086 15.29233 38223 ft 451 kts 200°
2026-04-30 10:22 43.25010 15.27160 38213 ft 450 kts 200°
2026-04-30 10:23 43.18925 15.25090 38199 ft 450 kts 200°
2026-04-30 10:23 43.12854 15.23033 38219 ft 449 kts 200°
2026-04-30 10:24 43.07084 15.21082 38230 ft 449 kts 200°
2026-04-30 10:24 43.06322 15.20823 38232 ft 449 kts 200°
2026-04-30 10:25 43.00269 15.18891 38201 ft 450 kts 199°
2026-04-30 10:25 42.94099 15.17110 38222 ft 449 kts 198°
2026-04-30 10:26 42.88033 15.15372 38230 ft 448 kts 199°
2026-04-30 10:26 42.81947 15.13586 38207 ft 447 kts 199°
2026-04-30 10:27 42.75868 15.11789 38223 ft 446 kts 199°
2026-04-30 10:27 42.69811 15.10009 38222 ft 446 kts 199°
2026-04-30 10:28 42.63742 15.08229 38219 ft 445 kts 199°
2026-04-30 10:28 42.57697 15.06457 38218 ft 444 kts 199°
2026-04-30 10:29 42.51668 15.04696 38223 ft 443 kts 199°
2026-04-30 10:29 42.45633 15.02943 38223 ft 443 kts 199°
2026-04-30 10:30 42.39608 15.01195 38204 ft 443 kts 199°
2026-04-30 10:30 42.33584 14.99447 38214 ft 443 kts 199°
2026-04-30 10:31 42.27561 14.97697 38219 ft 443 kts 199°
2026-04-30 10:31 42.21551 14.95964 38208 ft 442 kts 198°
2026-04-30 10:32 42.15557 14.94246 38209 ft 442 kts 198°
2026-04-30 10:32 42.09509 14.92498 38227 ft 441 kts 199°
2026-04-30 10:33 42.03554 14.90776 38198 ft 441 kts 198°
2026-04-30 10:33 41.97567 14.89062 38222 ft 440 kts 198°
2026-04-30 10:34 41.91564 14.87351 38230 ft 440 kts 198°
2026-04-30 10:34 41.85575 14.85639 38224 ft 440 kts 198°
2026-04-30 10:35 41.79609 14.83936 38222 ft 440 kts 198°
2026-04-30 10:35 41.73613 14.82234 38223 ft 440 kts 198°
2026-04-30 10:36 41.67633 14.80539 38220 ft 440 kts 198°
2026-04-30 10:36 41.61682 14.78724 38191 ft 438 kts 199°
2026-04-30 10:37 41.55764 14.76808 38198 ft 437 kts 200°
2026-04-30 10:37 41.49836 14.74913 38206 ft 437 kts 199°
2026-04-30 10:38 41.43871 14.73049 38190 ft 437 kts 199°
2026-04-30 10:38 41.37990 14.71225 38191 ft 436 kts 199°
2026-04-30 10:39 41.32038 14.69372 38195 ft 436 kts 199°
2026-04-30 10:39 41.26133 14.67533 38195 ft 436 kts 199°
2026-04-30 10:40 41.20266 14.65721 38181 ft 436 kts 197°
2026-04-30 10:40 41.14182 14.64976 38191 ft 441 kts 188°
2026-04-30 10:41 41.08052 14.64533 38174 ft 441 kts 188°
2026-04-30 10:41 41.01921 14.64092 38158 ft 440 kts 188°
2026-04-30 10:42 40.95809 14.63650 38159 ft 440 kts 188°
2026-04-30 10:42 40.90689 14.63280 38158 ft 440 kts 188°
2026-04-30 10:43 40.83577 14.62770 38139 ft 440 kts 188°
2026-04-30 10:43 40.78478 14.62407 38126 ft 441 kts 188°
2026-04-30 10:44 40.72278 14.61956 38110 ft 443 kts 188°
2026-04-30 10:44 40.66121 14.61508 38106 ft 443 kts 188°
2026-04-30 10:45 40.59997 14.61069 38092 ft 444 kts 188°
2026-04-30 10:45 40.53814 14.60623 38099 ft 446 kts 188°
2026-04-30 10:46 40.47615 14.60186 38107 ft 446 kts 188°
2026-04-30 10:46 40.41413 14.59746 38096 ft 447 kts 188°
2026-04-30 10:47 40.35207 14.59305 38126 ft 446 kts 188°
2026-04-30 10:47 40.29008 14.58868 38128 ft 446 kts 188°
2026-04-30 10:48 40.22810 14.58434 38128 ft 445 kts 188°
2026-04-30 10:48 40.16630 14.57997 38113 ft 445 kts 188°
2026-04-30 10:49 40.10445 14.57557 38125 ft 444 kts 188°
2026-04-30 10:49 40.04267 14.57122 38130 ft 444 kts 188°
2026-04-30 10:50 39.98103 14.56689 38105 ft 444 kts 188°
2026-04-30 10:50 39.91915 14.56257 38092 ft 446 kts 188°
2026-04-30 10:51 39.85707 14.55826 38094 ft 447 kts 188°
2026-04-30 10:51 39.79488 14.55386 38101 ft 448 kts 188°
2026-04-30 10:52 39.73254 14.54945 38099 ft 449 kts 188°
2026-04-30 10:52 39.67009 14.54507 38106 ft 449 kts 188°
2026-04-30 10:53 39.60809 14.54084 38106 ft 450 kts 188°
2026-04-30 10:53 39.54564 14.53652 38090 ft 450 kts 188°
2026-04-30 10:54 39.48310 14.53218 38103 ft 450 kts 188°
2026-04-30 10:54 39.42065 14.52781 38105 ft 450 kts 188°
2026-04-30 10:55 39.35818 14.52350 38106 ft 450 kts 188°
2026-04-30 10:55 39.29561 14.51919 38093 ft 450 kts 188°
2026-04-30 10:56 39.23308 14.51483 38100 ft 450 kts 188°
2026-04-30 10:56 39.17052 14.51051 38102 ft 450 kts 188°
2026-04-30 10:57 39.10790 14.50622 38077 ft 451 kts 189°
2026-04-30 10:57 39.04523 14.50195 38086 ft 451 kts 189°
2026-04-30 10:58 38.98251 14.49769 38092 ft 451 kts 189°
2026-04-30 10:58 38.91978 14.49335 38100 ft 452 kts 189°
2026-04-30 10:59 38.85697 14.48911 38088 ft 452 kts 189°
2026-04-30 10:59 38.79417 14.48485 38096 ft 452 kts 189°
2026-04-30 11:00 38.73130 14.48061 38098 ft 452 kts 189°
2026-04-30 11:00 38.66845 14.47645 38075 ft 452 kts 189°
2026-04-30 11:01 38.60564 14.47214 38090 ft 452 kts 189°
2026-04-30 11:01 38.54275 14.46785 38099 ft 452 kts 189°
2026-04-30 11:02 38.47991 14.46364 38100 ft 452 kts 189°
2026-04-30 11:02 38.41713 14.45935 38090 ft 452 kts 189°
2026-04-30 11:03 38.35429 14.45518 38094 ft 452 kts 189°
2026-04-30 11:04 38.25989 14.45093 38098 ft 454 kts 187°
2026-04-30 11:04 38.19676 14.45000 38070 ft 453 kts 187°
2026-04-30 11:05 38.13372 14.44886 38092 ft 452 kts 188°
2026-04-30 11:05 38.07086 14.44736 38102 ft 452 kts 188°
2026-04-30 11:06 38.00801 14.44565 38106 ft 451 kts 188°
2026-04-30 11:06 37.97678 14.44476 37892 ft 458 kts 188°
2026-04-30 11:06 37.94493 14.44387 37613 ft 459 kts 188°
2026-04-30 11:06 37.91300 14.44305 37348 ft 457 kts 188°
2026-04-30 11:07 37.88137 14.44230 36872 ft 454 kts 188°
2026-04-30 11:07 37.84983 14.44159 36408 ft 452 kts 188°
2026-04-30 11:07 37.81849 14.44088 35944 ft 449 kts 188°
2026-04-30 11:07 37.78734 14.44013 35481 ft 447 kts 188°
2026-04-30 11:08 37.75621 14.43935 34952 ft 446 kts 189°
2026-04-30 11:08 37.72531 14.43855 34521 ft 443 kts 189°
2026-04-30 11:08 37.69452 14.43775 34028 ft 442 kts 188°
2026-04-30 11:08 37.66383 14.43697 33504 ft 440 kts 188°
2026-04-30 11:09 37.63331 14.43619 33023 ft 437 kts 188°
2026-04-30 11:09 37.60295 14.43543 32541 ft 435 kts 188°
2026-04-30 11:09 37.57275 14.43467 32068 ft 433 kts 188°
2026-04-30 11:09 37.54273 14.43392 31589 ft 430 kts 188°
2026-04-30 11:10 37.51283 14.43317 31134 ft 429 kts 188°
2026-04-30 11:10 37.48310 14.43240 30677 ft 427 kts 188°
2026-04-30 11:10 37.45345 14.43164 30224 ft 426 kts 188°
2026-04-30 11:10 37.42394 14.43092 29752 ft 422 kts 187°
2026-04-30 11:11 37.39463 14.43022 29319 ft 419 kts 187°
2026-04-30 11:11 37.36561 14.42950 28904 ft 416 kts 188°
2026-04-30 11:11 37.33678 14.42877 28497 ft 413 kts 187°
2026-04-30 11:11 37.30814 14.42806 28078 ft 411 kts 187°
2026-04-30 11:12 37.27959 14.42736 27660 ft 409 kts 188°
2026-04-30 11:12 37.25123 14.42665 27232 ft 407 kts 187°
2026-04-30 11:12 37.22289 14.42591 26773 ft 408 kts 187°
2026-04-30 11:12 37.19455 14.42486 26320 ft 407 kts 189°
2026-04-30 11:13 37.16638 14.42276 25829 ft 406 kts 190°
2026-04-30 11:13 37.13819 14.41996 25357 ft 406 kts 191°
2026-04-30 11:13 37.11011 14.41686 25017 ft 402 kts 191°
2026-04-30 11:13 37.08216 14.41378 24487 ft 404 kts 190°
2026-04-30 11:14 37.05449 14.41090 24036 ft 394 kts 191°
2026-04-30 11:14 37.02731 14.40822 23306 ft 389 kts 190°
2026-04-30 11:14 37.00072 14.40571 22801 ft 376 kts 190°
2026-04-30 11:14 36.97515 14.40341 22329 ft 363 kts 190°
2026-04-30 11:15 36.95056 14.40123 21879 ft 358 kts 190°
2026-04-30 11:15 36.92542 14.39890 21409 ft 358 kts 190°
2026-04-30 11:15 36.90090 14.39656 20951 ft 357 kts 190°
2026-04-30 11:15 36.87578 14.39414 20481 ft 357 kts 190°
2026-04-30 11:16 36.85162 14.39033 20021 ft 353 kts 196°
2026-04-30 11:16 36.82748 14.38465 19556 ft 353 kts 195°
2026-04-30 11:16 36.80330 14.37906 19095 ft 353 kts 195°
2026-04-30 11:16 36.77914 14.37353 18632 ft 353 kts 195°
2026-04-30 11:17 36.75498 14.36802 18139 ft 353 kts 195°
2026-04-30 11:17 36.73081 14.36255 17653 ft 352 kts 195°
2026-04-30 11:17 36.70684 14.35713 17194 ft 350 kts 194°
2026-04-30 11:17 36.68295 14.35173 16737 ft 348 kts 194°
2026-04-30 11:18 36.65925 14.34636 16284 ft 346 kts 194°
2026-04-30 11:18 36.61277 14.33580 15396 ft 327 kts 194°
2026-04-30 11:18 36.59079 14.33086 14974 ft 315 kts 195°
2026-04-30 11:19 36.56923 14.32597 14574 ft 316 kts 195°
2026-04-30 11:19 36.54757 14.32103 14161 ft 316 kts 195°
2026-04-30 11:19 36.52591 14.31607 13735 ft 317 kts 195°
2026-04-30 11:19 36.50419 14.31108 13296 ft 317 kts 194°
2026-04-30 11:20 36.48263 14.30612 13046 ft 311 kts 194°
2026-04-30 11:20 36.46154 14.30131 13048 ft 307 kts 194°
2026-04-30 11:20 36.44054 14.29652 12945 ft 307 kts 194°
2026-04-30 11:20 36.41912 14.29160 12156 ft 319 kts 194°
2026-04-30 11:21 36.39715 14.28656 11625 ft 323 kts 194°
2026-04-30 11:21 36.37514 14.28157 11086 ft 318 kts 193°
2026-04-30 11:21 36.35348 14.27667 10477 ft 312 kts 193°
2026-04-30 11:21 36.33249 14.27196 10045 ft 301 kts 193°
2026-04-30 11:22 36.31213 14.26741 9659 ft 295 kts 193°
2026-04-30 11:22 36.29200 14.26287 9273 ft 293 kts 193°
2026-04-30 11:22 36.27175 14.25828 8826 ft 296 kts 193°
2026-04-30 11:22 36.25157 14.25369 8427 ft 296 kts 193°
2026-04-30 11:23 36.23151 14.24915 8180 ft 291 kts 193°
2026-04-30 11:23 36.21169 14.24467 7715 ft 288 kts 193°
2026-04-30 11:23 36.17319 14.23601 6871 ft 276 kts 193°
2026-04-30 11:24 36.15429 14.23173 6501 ft 277 kts 193°
2026-04-30 11:24 36.13525 14.22738 6104 ft 278 kts 193°
2026-04-30 11:24 36.11620 14.22307 5744 ft 279 kts 193°
2026-04-30 11:25 36.07834 14.21456 5273 ft 269 kts 193°
2026-04-30 11:25 36.06011 14.21077 5163 ft 263 kts 187°
2026-04-30 11:25 36.03022 14.23012 4937 ft 251 kts 116°
2026-04-30 11:26 36.01815 14.26915 4700 ft 236 kts 109°
2026-04-30 11:26 36.01087 14.28698 4448 ft 232 kts 131°
2026-04-30 11:26 35.99981 14.30108 4158 ft 224 kts 136°
2026-04-30 11:27 35.98886 14.31427 3875 ft 218 kts 136°
2026-04-30 11:27 35.97812 14.32751 3595 ft 218 kts 135°
2026-04-30 11:27 35.96736 14.34090 3307 ft 220 kts 135°
2026-04-30 11:27 35.95673 14.35415 3037 ft 214 kts 135°
2026-04-30 11:28 35.93616 14.37975 2468 ft 206 kts 135°
2026-04-30 11:28 35.92649 14.39178 2205 ft 193 kts 135°
2026-04-30 11:28 35.91722 14.40330 1958 ft 181 kts 135°
2026-04-30 11:29 35.90870 14.41390 1728 ft 171 kts 135°
2026-04-30 11:29 35.90057 14.42399 1506 ft 158 kts 134°
2026-04-30 11:29 35.88627 14.44174 1121 ft 140 kts 134°
2026-04-30 11:30 35.87269 14.45860 758 ft 138 kts 133°
2026-04-30 11:30 35.86598 14.46693 579 ft 137 kts 133°
2026-04-30 11:30 35.86159 14.47249 456 ft 136 kts 133°
2026-04-30 11:31 35.85491 14.48080 296 ft 135 kts 133°
2026-04-30 11:31 35.84858 14.48854 284 ft 120 kts 132°
2026-04-30 11:31 35.84228 14.49655 756 ft 134 kts 133°
2026-04-30 11:31 35.83575 14.50491 1429 ft 137 kts 136°
2026-04-30 11:32 35.82658 14.50956 1703 ft 153 kts 183°
2026-04-30 11:32 35.81227 14.50326 1967 ft 180 kts 208°
2026-04-30 11:32 35.80462 14.49827 2163 ft 196 kts 210°
2026-04-30 11:33 35.77905 14.48121 2948 ft 215 kts 210°
2026-04-30 11:33 35.76596 14.47226 3003 ft 214 kts 217°
2026-04-30 11:33 35.75707 14.45827 3005 ft 209 kts 252°
2026-04-30 11:33 35.75666 14.44070 3018 ft 213 kts 287°
2026-04-30 11:34 35.76511 14.42520 2991 ft 230 kts 320°
2026-04-30 11:34 35.77864 14.41398 3013 ft 237 kts 328°
2026-04-30 11:34 35.79283 14.40374 3009 ft 233 kts 329°
2026-04-30 11:34 35.80640 14.39414 3005 ft 217 kts 329°
2026-04-30 11:35 35.81900 14.38531 3004 ft 202 kts 329°
2026-04-30 11:35 35.83104 14.37686 3006 ft 197 kts 329°
2026-04-30 11:35 35.84284 14.36858 3009 ft 194 kts 329°
2026-04-30 11:35 35.85452 14.36036 3008 ft 193 kts 329°
2026-04-30 11:36 35.86620 14.35218 3002 ft 193 kts 329°
2026-04-30 11:36 35.87890 14.34710 3007 ft 196 kts 357°
2026-04-30 11:36 35.89250 14.34822 3005 ft 196 kts
2026-04-30 11:36 35.90609 14.34978 3000 ft 196 kts
2026-04-30 11:37 35.91958 14.35195 3000 ft 195 kts
2026-04-30 11:37 35.93300 14.35419 2989 ft 196 kts 17°
2026-04-30 11:37 35.94493 14.36223 2983 ft 197 kts 39°
2026-04-30 11:37 35.95351 14.37546 2981 ft 200 kts 63°
2026-04-30 11:38 35.95727 14.39210 2995 ft 209 kts 86°
2026-04-30 11:38 35.95524 14.40989 3016 ft 205 kts 110°
2026-04-30 11:38 35.94784 14.42475 2682 ft 205 kts 134°
2026-04-30 11:38 35.93597 14.43278 2306 ft 191 kts 169°
2026-04-30 11:39 35.92337 14.43158 2013 ft 174 kts 198°
2026-04-30 11:39 35.91240 14.42744 1879 ft 161 kts 188°
2026-04-30 11:39 35.90175 14.42906 1677 ft 153 kts 153°
2026-04-30 11:39 35.89354 14.43686 1431 ft 147 kts 137°
2026-04-30 11:40 35.88606 14.44528 1128 ft 145 kts 137°
2026-04-30 11:40 35.87864 14.45321 961 ft 138 kts 140°
2026-04-30 11:40 35.87135 14.46116 693 ft 138 kts 135°
2026-04-30 11:40 35.86427 14.46912 535 ft 137 kts 136°
2026-04-30 11:41 35.85751 14.47741 354 ft 135 kts 133°
2026-04-30 11:41 35.85125 14.48543 274 ft 118 kts 134°
2026-04-30 11:41 35.84638 14.49131 259 ft 74 kts 135°
2026-04-30 11:41 35.84503 14.49322 259 ft 15 kts 121°
2026-04-30 11:42 35.84469 14.49406 259 ft 10 kts 107°
2026-04-30 11:42 35.84448 14.49503 259 ft 13 kts 97°
2026-04-30 11:42 35.84482 14.49577 259 ft 11 kts 15°
2026-04-30 11:42 35.84547 14.49539 259 ft 12 kts 313°
2026-04-30 11:43 35.84610 14.49456 259 ft 15 kts 313°
2026-04-30 11:43 35.84686 14.49357 259 ft 17 kts 314°
2026-04-30 11:43 35.84778 14.49246 259 ft 20 kts 316°
2026-04-30 11:43 35.84871 14.49152 259 ft 15 kts 351°
2026-04-30 11:44 35.84933 14.49240 258 ft 17 kts 98°
2026-04-30 11:44 35.84864 14.49361 259 ft 19 kts 140°
2026-04-30 11:44 35.84784 14.49461 259 ft 12 kts 135°
2026-04-30 11:44 35.84762 14.49503 259 ft 4 kts 73°
2026-04-30 11:45 35.84793 14.49516 259 ft 6 kts
2026-04-30 11:45 35.84810 14.49515 259 ft 0 kts 356°